Wind_Speed
13 11 8 6 5 5 4 5 5 5 5 7 7 7 7 6 7 7 7 8 9 9 9 9 9 9 9 9 9 9 9 10 10 11 10 11 10 11 11 11 12 12 11 10
14 12 10 8 7 6 7 6 5 6 7 9 9 9 7 9 8 6 7 8 8 9 9 9 9 8 10 10 8 8 9 9 10 10 10 10 11 11 11 12 13 12 11 10
14 12 11 10 9 9 9 9 8 9 11 11 11 10 10 10 7 7 8 9 10 10 9 8 7 8 8 9 8 8 9 9 9 9 9 10 11 11 12 12 12 12 11 11
15 14 13 12 11 11 12 12 11 11 13 14 13 12 10 10 9 9 8 9 10 10 10 9 8 8 8 8 8 8 8 9 9 9 9 10 11 12 12 12 13 12 12 12
16 15 15 13 12 13 13 14 14 13 14 14 14 15 12 11 10 10 10 10 10 10 11 10 9 9 10 9 8 8 8 9 9 9 10 11 11 12 12 13 13 13 13 13
16 15 15 14 13 13 14 14 15 15 16 17 14 14 12 11 11 11 10 11 11 10 10 10 11 11 11 10 9 9 9 9 10 10 11 12 13 13 14 14 14 14 14 14
17 17 16 15 14 14 14 14 15 16 17 17 15 15 14 12 11 12 11 12 13 12 12 13 12 12 12 12 12 12 11 10 11 12 12 13 13 14 15 15 16 15 15 15
18 17 17 17 16 15 16 15 16 17 16 16 16 16 14 13 12 12 13 13 14 13 13 14 14 13 13 13 12 13 13 13 13 14 14 15 15 16 16 17 17 17 17 17
19 18 18 17 16 16 17 17 16 17 17 17 15 14 14 14 13 14 15 14 15 15 14 14 14 14 13 12 13 13 14 14 14 15 16 16 17 17 18 18 19 19 19 19
21 20 19 19 19 19 18 17 17 18 17 18 17 16 15 14 14 14 14 15 15 15 17 16 14 13 13 13 13 14 15 15 15 17 18 18 19 20 20 20 20 20 20 20
21 22 21 21 21 19 19 19 19 19 19 20 20 18 16 15 15 14 13 14 14 14 15 17 16 13 12 13 14 15 16 17 18 19 20 21 22 22 22 22 22 21 21 22
23 23 22 22 22 21 20 18 19 21 21 21 22 21 18 16 15 14 14 14 14 16 16 16 16 14 13 14 15 16 18 19 20 21 22 22 23 24 24 24 24 23 22 23
26 25 24 23 23 22 22 21 21 23 22 22 23 22 19 17 16 15 15 15 16 16 16 16 17 15 15 16 16 17 19 21 22 23 23 24 25 25 26 25 25 24 24 24
25 24 25 24 23 23 24 24 24 24 24 24 23 22 20 20 19 17 16 17 17 18 17 18 18 17 17 18 19 19 20 22 24 25 25 25 25 26 25 26 25 25 25 24
25 25 24 24 24 25 25 24 24 23 23 23 23 22 20 20 19 19 19 19 21 21 19 19 18 19 20 20 21 21 22 24 25 26 26 26 26 26 26 26 25 24 24 24
27 27 26 25 25 24 26 25 25 23 22 22 23 22 22 21 21 22 21 21 22 21 21 21 20 21 21 22 22 23 24 25 26 27 27 27 27 26 26 26 25 25 25 24
28 28 28 27 26 25 24 24 25 24 22 23 23 22 22 21 20 21 22 22 22 22 22 21 21 21 22 23 24 25 26 27 27 27 27 27 27 27 26 26 25 25 25 25
27 27 28 27 26 28 25 24 25 25 25 25 25 24 24 24 24 24 24 24 25 25 24 23 23 23 24 24 25 27 27 27 27 27 27 28 28 28 28 27 27 26 26 26
27 26 27 28 28 28 26 26 26 26 26 26 26 25 25 25 26 27 26 26 26 26 26 25 25 26 27 27 28 29 29 28 28 28 29 30 30 29 29 29 28 28 27 27
26 27 28 28 28 27 26 27 27 28 27 27 27 27 28 28 28 28 28 28 28 28 28 28 28 29 28 28 29 29 29 29 29 29 30 31 31 30 30 30 30 29 29 29
26 27 28 28 28 28 26 26 27 28 28 28 28 29 29 31 31 31 31 31 30 30 30 30 30 30 30 30 31 30 30 30 30 31 31 32 31 31 30 30 30 30 30 30
26 27 28 28 29 29 29 28 27 27 27 29 30 29 29 30 30 29 30 30 31 31 32 31 31 30 31 31 32 32 31 32 32 32 32 31 31 31 31 30 30 30 31 30
25 25 27 28 29 29 29 29 29 29 30 30 29 29 29 29 28 29 30 30 31 31 31 31 31 32 32 32 33 33 33 33 32 32 32 32 31 30 30 30 30 30 30 30
26 26 27 29 29 29 29 31 31 30 30 29 29 28 29 29 29 29 30 31 31 31 31 32 32 33 33 34 34 34 34 33 32 32 32 32 31 30 30 30 30 30 30 30
27 27 28 29 29 29 31 32 32 31 30 29 30 30 28 28 30 30 31 33 33 33 34 34 34 34 34 34 35 35 34 34 33 32 31 30 30 30 30 30 30 30 30 30
28 29 30 30 31 32 32 32 33 33 33 32 32 32 32 31 32 32 33 33 34 35 35 36 36 35 35 35 34 34 34 33 32 31 30 30 30 30 30 31 30 30 30 30
Wind_Direction
201 201 198 196 192 194 219 240 258 265 273 287 296 302 315 324 331 339 352 352 348 350 350 351 351 352 355 356 358 1 358 0 3 3 5 4 3 3 4 3 1 0 356 355
207 205 202 203 202 216 224 238 246 256 257 273 285 293 295 305 314 324 338 343 338 336 338 342 343 343 348 346 349 351 350 349 353 355 356 358 356 356 357 357 355 353 351 354
214 212 213 213 211 221 229 237 237 247 251 259 275 281 287 295 300 314 327 336 338 331 329 327 332 337 340 344 341 341 346 346 347 347 347 349 349 348 347 348 350 346 344 347
216 214 219 221 228 230 237 241 247 249 248 255 264 280 284 288 289 305 314 319 324 321 324 322 322 330 335 330 325 327 334 339 341 341 339 339 338 340 342 342 343 340 339 337
220 220 223 225 233 237 241 244 247 248 250 257 263 268 272 281 287 292 303 306 316 316 320 319 316 320 322 323 319 318 319 324 327 328 328 330 329 328 329 330 333 333 332 329
223 222 226 231 233 235 242 247 247 251 252 257 261 269 267 278 288 293 293 297 301 308 309 310 309 311 313 309 308 309 308 314 315 317 320 322 322 323 323 323 325 325 326 324
221 223 225 230 235 235 241 249 250 250 251 256 259 268 273 276 289 290 290 295 297 300 301 304 302 305 309 304 304 299 299 302 306 311 316 317 318 321 321 321 321 321 320 318
228 225 223 230 238 240 244 251 258 258 259 259 261 268 275 279 292 291 289 291 294 296 298 300 300 301 304 301 298 299 295 296 299 306 310 313 316 318 318 318 317 317 316 314
234 228 225 231 239 239 244 249 257 261 265 263 264 270 273 277 283 288 287 292 295 289 292 299 297 297 297 294 296 297 298 298 302 303 305 307 309 311 313 313 314 313 313 310
238 236 228 232 235 238 245 249 251 254 259 260 263 268 273 276 285 289 289 297 295 293 298 299 297 291 287 286 290 294 297 299 300 302 302 306 308 310 310 309 309 310 309 307
239 242 236 234 235 236 243 248 251 255 257 262 267 272 274 275 278 286 287 294 296 299 303 300 298 292 287 284 286 291 296 298 300 303 306 307 308 308 307 307 307 308 307 304
239 242 240 237 237 236 240 250 253 254 256 259 265 275 275 273 278 283 286 289 290 294 297 296 297 294 290 288 290 296 299 297 299 302 304 304 305 307 307 306 305 305 304 304
236 240 240 238 237 237 238 243 250 252 254 257 265 270 272 272 278 280 283 288 294 293 293 294 296 294 289 291 294 299 300 299 298 299 300 301 303 304 305 306 304 302 301 302
236 239 239 239 237 236 238 241 245 250 253 258 263 267 268 276 274 279 282 288 293 295 296 294 296 295 292 291 295 298 299 299 299 298 298 300 302 303 305 306 302 299 299 299
238 241 242 242 240 238 238 242 246 249 252 257 261 265 270 275 276 279 284 288 294 295 293 292 293 293 293 293 294 295 296 297 297 298 297 299 300 301 302 303 301 298 297 297
241 243 244 243 242 242 241 244 247 248 250 255 261 264 269 275 277 278 280 284 290 295 293 294 296 295 295 295 295 295 296 297 297 297 297 297 298 299 299 299 299 298 299 297
241 245 247 245 243 245 243 243 244 246 248 251 257 263 267 272 276 279 280 282 286 290 292 294 294 295 294 294 294 294 295 295 296 296 297 297 298 298 297 297 298 299 301 301
242 246 248 248 246 246 245 244 245 247 250 253 257 260 264 269 274 277 279 281 283 286 287 290 292 293 292 293 293 293 294 295 296 297 296 296 296 297 296 295 296 297 299 299
244 246 248 249 249 250 246 245 247 249 252 255 258 262 266 268 270 273 277 280 282 284 285 286 288 291 292 292 292 293 293 294 295 296 296 296 297 297 295 295 294 296 298 298
244 246 248 249 250 251 251 249 251 252 252 255 259 263 267 269 270 272 274 277 278 281 283 285 287 290 292 292 293 294 294 294 294 295 295 296 296 296 296 295 295 296 296 297
243 244 245 247 250 252 251 250 253 254 256 258 261 263 266 268 271 273 273 275 277 280 282 285 287 287 288 291 292 292 292 292 292 292 292 293 294 295 295 294 293 293 294 296
244 245 244 245 249 251 253 253 254 258 260 261 262 263 265 266 269 271 273 275 278 280 282 284 286 286 288 290 291 291 290 290 290 290 290 291 292 294 294 293 293 293 294 295
248 247 246 248 251 255 256 256 256 259 261 263 265 264 266 267 267 270 273 274 277 279 281 283 284 286 287 288 289 289 289 289 290 290 290 291 290 291 292 291 291 292 293 294
249 251 252 254 254 255 256 256 257 260 263 264 265 267 269 270 271 271 273 275 278 280 281 283 283 283 285 286 287 287 288 288 289 289 289 289 289 288 289 289 289 290 291 293
249 250 252 255 257 257 257 260 261 260 263 265 266 267 269 272 273 274 277 279 279 280 281 282 283 283 284 285 285 286 286 286 288 288 288 288 288 289 289 289 290 291 291 293
251 251 252 254 257 258 259 261 263 264 265 266 267 267 270 274 275 277 278 279 279 279 281 282 284 284 283 283 285 284 284 284 285 286 286 286 287 288 289 289 290 292 293 294
Height
5917 5920 5920 5922 5922 5923 5923 5924 5924 5924 5925 5925 5925 5925 5925 5925 5924 5923 5922 5922 5921 5920 5919 5917 5916 5915 5914 5913 5912 5911 5909 5908 5907 5905 5904 5903 5901 5899 5897 5896 5894 5892 5890 5889
5915 5917 5919 5919 5920 5921 5922 5922 5923 5923 5924 5924 5923 5924 5923 5922 5922 5922 5921 5921 5920 5919 5918 5917 5916 5914 5912 5911 5911 5910 5909 5907 5906 5905 5903 5902 5900 5898 5897 5895 5893 5891 5890 5888
5912 5915 5915 5916 5918 5919 5919 5920 5922 5922 5921 5921 5922 5922 5921 5920 5920 5920 5919 5919 5919 5918 5917 5916 5914 5913 5912 5910 5910 5909 5908 5906 5905 5903 5902 5901 5899 5898 5896 5894 5892 5890 5888 5887
5909 5912 5912 5913 5915 5916 5917 5918 5919 5919 5919 5918 5919 5918 5919 5917 5918 5918 5917 5917 5916 5915 5915 5914 5912 5911 5911 5910 5909 5908 5907 5905 5904 5902 5901 5899 5898 5896 5895 5893 5891 5889 5887 5886
5906 5908 5909 5910 5912 5913 5914 5915 5915 5916 5916 5916 5916 5916 5917 5916 5916 5916 5915 5914 5913 5913 5913 5911 5910 5910 5909 5908 5907 5906 5905 5903 5902 5901 5899 5898 5896 5895 5893 5891 5889 5887 5885 5884
5903 5904 5906 5907 5909 5910 5911 5912 5912 5912 5913 5913 5914 5913 5913 5913 5913 5913 5912 5911 5911 5910 5910 5909 5909 5908 5908 5906 5905 5904 5902 5901 5899 5898 5897 5895 5894 5892 5891 5889 5887 5885 5883 5881
5898 5901 5902 5904 5905 5907 5908 5908 5909 5909 5908 5909 5910 5909 5911 5910 5910 5909 5908 5908 5907 5907 5906 5906 5906 5906 5905 5903 5902 5901 5900 5898 5897 5895 5894 5893 5891 5889 5888 5886 5884 5882 5880 5878
5894 5896 5899 5900 5901 5903 5904 5904 5905 5905 5905 5906 5906 5905 5907 5907 5906 5905 5905 5905 5904 5904 5903 5903 5903 5902 5901 5900 5899 5898 5897 5895 5893 5892 5891 5889 5888 5886 5885 5883 5880 5878 5877 5874
5889 5892 5895 5896 5898 5899 5899 5900 5901 5901 5901 5901 5901 5902 5903 5903 5902 5901 5901 5901 5901 5900 5900 5900 5899 5898 5897 5897 5895 5894 5893 5891 5889 5889 5887 5885 5884 5882 5881 5879 5876 5874 5872 5870
5884 5887 5890 5892 5893 5894 5896 5896 5897 5897 5896 5896 5897 5898 5899 5899 5898 5898 5898 5898 5896 5896 5896 5895 5895 5894 5893 5892 5891 5890 5889 5887 5886 5885 5883 5880 5879 5878 5876 5874 5872 5869 5867 5865
5880 5882 5885 5887 5888 5890 5891 5892 5892 5893 5893 5893 5893 5896 5895 5895 5895 5894 5894 5894 5893 5892 5891 5891 5890 5889 5887 5887 5886 5885 5884 5883 5882 5880 5878 5876 5875 5872 5871 5869 5866 5864 5862 5859
5874 5876 5879 5882 5884 5885 5886 5887 5888 5889 5889 5888 5888 5892 5890 5890 5890 5890 5890 5890 5889 5888 5888 5887 5886 5884 5883 5883 5882 5881 5880 5878 5877 5875 5873 5871 5869 5867 5865 5863 5860 5858 5856 5853
5869 5871 5874 5876 5880 5880 5881 5882 5882 5883 5884 5884 5884 5887 5885 5885 5885 5886 5885 5885 5885 5884 5883 5882 5881 5880 5879 5878 5877 5876 5875 5873 5871 5870 5868 5866 5863 5861 5859 5857 5854 5852 5849 5847
5864 5866 5869 5871 5873 5874 5875 5876 5877 5877 5878 5878 5879 5880 5880 5880 5880 5881 5881 5880 5880 5879 5878 5877 5876 5875 5874 5873 5872 5871 5869 5868 5866 5864 5862 5859 5857 5855 5852 5850 5847 5844 5843 5841
5858 5860 5863 5865 5867 5868 5870 5871 5871 5872 5873 5874 5874 5875 5876 5876 5876 5876 5876 5875 5874 5873 5873 5872 5870 5870 5869 5868 5867 5865 5864 5862 5860 5858 5856 5853 5851 5849 5846 5844 5841 5839 5836 5834
5853 5855 5857 5860 5861 5863 5864 5865 5866 5867 5867 5868 5869 5870 5870 5871 5871 5871 5870 5870 5870 5868 5867 5866 5865 5865 5864 5862 5861 5860 5858 5856 5854 5852 5849 5847 5844 5842 5839 5837 5835 5832 5830 5827
5846 5849 5851 5853 5855 5856 5859 5860 5860 5861 5861 5862 5863 5865 5865 5865 5865 5865 5865 5865 5864 5864 5862 5861 5859 5858 5857 5856 5855 5853 5852 5850 5848 5845 5843 5840 5837 5835 5833 5830 5828 5825 5822 5820
5841 5843 5844 5846 5849 5850 5854 5853 5853 5854 5855 5856 5857 5858 5859 5860 5859 5859 5859 5859 5858 5858 5856 5855 5853 5852 5850 5849 5848 5846 5844 5842 5840 5838 5835 5833 5830 5828 5825 5822 5820 5817 5815 5813
5835 5836 5838 5840 5841 5842 5845 5846 5847 5848 5849 5850 5850 5851 5852 5852 5853 5853 5853 5852 5852 5851 5849 5848 5847 5845 5844 5842 5841 5839 5837 5835 5833 5830 5828 5825 5823 5820 5818 5815 5812 5810 5808 5805
5828 5829 5831 5832 5834 5835 5839 5840 5840 5842 5842 5843 5844 5844 5846 5846 5847 5847 5846 5846 5845 5844 5843 5842 5840 5839 5837 5835 5833 5831 5829 5827 5825 5823 5820 5818 5815 5813 5810 5807 5805 5802 5800 5797
5821 5822 5823 5825 5826 5828 5830 5832 5834 5836 5837 5837 5837 5837 5838 5839 5839 5840 5839 5838 5837 5836 5835 5834 5833 5831 5829 5828 5826 5823 5821 5819 5817 5815 5812 5810 5807 5804 5802 5799 5797 5794 5792 5789
5813 5815 5816 5818 5820 5823 5823 5825 5827 5828 5829 5829 5829 5830 5830 5830 5831 5831 5831 5830 5829 5828 5827 5826 5824 5823 5821 5819 5817 5815 5813 5810 5808 5806 5803 5801 5799 5796 5793 5791 5788 5785 5783 5780
5806 5808 5810 5812 5814 5815 5816 5817 5818 5819 5821 5821 5821 5821 5822 5822 5822 5823 5823 5822 5821 5820 5819 5817 5816 5814 5813 5811 5808 5806 5804 5801 5799 5796 5794 5792 5790 5787 5785 5782 5779 5776 5774 5771
5799 5801 5803 5804 5805 5807 5808 5809 5810 5811 5812 5813 5814 5814 5814 5814 5814 5814 5814 5813 5812 5811 5810 5808 5807 5805 5803 5801 5799 5797 5795 5792 5790 5788 5785 5782 5780 5777 5775 5772 5770 5767 5765 5762
5793 5794 5795 5796 5797 5798 5800 5801 5802 5802 5804 5805 5806 5806 5806 5806 5805 5805 5804 5803 5802 5801 5800 5799 5797 5795 5793 5791 5789 5787 5785 5783 5780 5778 5776 5773 5771 5768 5765 5763 5761 5759 5756 5754
5785 5786 5787 5788 5789 5791 5792 5793 5793 5794 5795 5796 5796 5797 5797 5797 5796 5795 5794 5793 5792 5791 5790 5789 5787 5784 5782 5780 5778 5776 5775 5772 5770 5768 5766 5764 5762 5759 5757 5754 5752 5749 5747 5745